Time,TemperatureF,DewpointF,PressureIn,WindDirection,WindDirectionDegrees,WindSpeedMPH,WindSpeedGustMPH,Humidity,HourlyPrecipIn,Conditions,Clouds,dailyrainin,SoftwareType,DateUTC
2017-03-23 00:03:00,33.0,29.0,29.93,WNW,293,6.0,-999.0,88,0.00,,,0.00,,2017-03-23 07:03:00,
2017-03-23 00:08:00,33.0,29.0,29.92,WNW,293,6.0,-999.0,86,0.00,,,0.00,,2017-03-23 07:08:00,
2017-03-23 00:14:00,33.0,29.0,29.92,NW,315,8.0,-999.0,86,0.00,,,0.00,,2017-03-23 07:14:00,
2017-03-23 00:19:00,33.0,29.0,29.93,WNW,293,7.0,-999.0,86,0.00,,,0.00,,2017-03-23 07:19:00,
2017-03-23 00:25:00,33.0,29.0,29.93,WNW,293,6.0,-999.0,86,0.00,,,0.00,,2017-03-23 07:25:00,
2017-03-23 00:31:00,32.9,29.0,29.93,WNW,293,6.0,-999.0,86,0.00,,,0.00,,2017-03-23 07:31:00,
2017-03-23 00:36:00,32.6,29.0,29.93,West,270,6.0,-999.0,88,0.00,,,0.00,,2017-03-23 07:36:00,
2017-03-23 00:42:00,32.6,29.0,29.93,West,270,5.0,-999.0,88,0.00,,,0.00,,2017-03-23 07:42:00,
2017-03-23 00:47:00,32.6,29.0,29.94,WNW,293,6.0,-999.0,88,0.00,,,0.00,,2017-03-23 07:47:00,
2017-03-23 00:53:00,32.6,29.0,29.93,SW,225,6.0,-999.0,88,0.00,,,0.00,,2017-03-23 07:53:00,
2017-03-23 00:58:00,32.6,29.0,29.93,West,270,7.0,-999.0,88,0.00,,,0.00,,2017-03-23 07:58:00,
2017-03-23 01:05:00,32.9,29.0,29.94,WNW,293,5.0,-999.0,88,0.00,,,0.00,,2017-03-23 08:05:00,
2017-03-23 01:10:00,32.9,29.0,29.94,WNW,293,6.0,-999.0,88,0.00,,,0.00,,2017-03-23 08:10:00,
2017-03-23 01:16:00,32.5,29.0,29.94,WNW,293,5.0,-999.0,88,0.00,,,0.00,,2017-03-23 08:16:00,
2017-03-23 01:21:00,32.4,29.0,29.94,NW,315,5.0,-999.0,88,0.00,,,0.00,,2017-03-23 08:21:00,
2017-03-23 01:27:00,32.2,29.0,29.94,WNW,293,5.0,-999.0,90,0.00,,,0.00,,2017-03-23 08:27:00,
2017-03-23 01:32:00,31.9,29.0,29.94,NNW,338,6.0,-999.0,90,0.00,,,0.00,,2017-03-23 08:32:00,
2017-03-23 01:38:00,31.9,29.0,29.94,NNW,338,6.0,-999.0,91,0.00,,,0.00,,2017-03-23 08:38:00,
2017-03-23 01:43:00,31.9,29.0,29.95,NW,315,6.0,-999.0,91,0.00,,,0.00,,2017-03-23 08:43:00,
2017-03-23 01:49:00,31.9,29.0,29.95,NW,315,4.0,-999.0,91,0.00,,,0.00,,2017-03-23 08:49:00,
2017-03-23 01:54:00,32.2,30.0,29.95,WNW,293,6.0,-999.0,91,0.00,,,0.00,,2017-03-23 08:54:00,
2017-03-23 02:00:00,32.2,30.0,29.94,West,270,5.0,-999.0,91,0.00,,,0.00,,2017-03-23 09:00:00,
2017-03-23 02:05:00,32.2,29.0,29.95,West,270,7.0,-999.0,90,0.00,,,0.00,,2017-03-23 09:05:00,
2017-03-23 02:11:00,32.4,29.0,29.95,NW,315,7.0,-999.0,88,0.00,,,0.00,,2017-03-23 09:11:00,
2017-03-23 02:16:00,32.5,29.0,29.95,NW,315,6.0,-999.0,88,0.00,,,0.00,,2017-03-23 09:16:00,
2017-03-23 02:22:00,32.2,29.0,29.95,NNW,338,4.0,-999.0,90,0.00,,,0.00,,2017-03-23 09:22:00,
2017-03-23 02:27:00,31.9,29.0,29.95,WNW,293,8.0,-999.0,91,0.00,,,0.00,,2017-03-23 09:27:00,
2017-03-23 02:33:00,31.9,29.0,29.95,WNW,293,6.0,-999.0,91,0.00,,,0.00,,2017-03-23 09:33:00,
2017-03-23 02:39:00,32.4,29.0,29.96,WNW,293,7.0,-999.0,88,0.00,,,0.00,,2017-03-23 09:39:00,
2017-03-23 02:44:00,32.2,29.0,29.95,WNW,293,4.0,-999.0,88,0.00,,,0.00,,2017-03-23 09:44:00,
2017-03-23 02:50:00,31.9,29.0,29.96,NW,315,5.0,-999.0,90,0.00,,,0.00,,2017-03-23 09:50:00,
2017-03-23 02:55:00,32.2,29.0,29.96,NW,315,7.0,-999.0,90,0.00,,,0.00,,2017-03-23 09:55:00,
2017-03-23 03:01:00,32.4,29.0,29.96,West,270,6.0,-999.0,88,0.00,,,0.00,,2017-03-23 10:01:00,
2017-03-23 03:07:00,32.2,29.0,29.96,West,270,4.0,-999.0,90,0.00,,,0.00,,2017-03-23 10:07:00,
2017-03-23 03:12:00,31.9,29.0,29.96,WNW,293,4.0,-999.0,91,0.00,,,0.00,,2017-03-23 10:12:00,
2017-03-23 03:18:00,31.7,29.0,29.96,NNW,338,4.0,-999.0,91,0.00,,,0.00,,2017-03-23 10:18:00,
2017-03-23 03:23:00,31.5,29.0,29.96,NW,315,4.0,-999.0,93,0.00,,,0.00,,2017-03-23 10:23:00,
2017-03-23 03:29:00,31.1,29.0,29.96,NNW,338,4.0,-999.0,93,0.00,,,0.00,,2017-03-23 10:29:00,
2017-03-23 03:34:00,30.8,29.0,29.96,NW,315,5.0,-999.0,93,0.00,,,0.00,,2017-03-23 10:34:00,
2017-03-23 03:40:00,30.8,29.0,29.96,WNW,293,5.0,-999.0,93,0.00,,,0.00,,2017-03-23 10:40:00,
2017-03-23 03:46:00,30.8,29.0,29.97,NW,315,5.0,-999.0,93,0.00,,,0.00,,2017-03-23 10:46:00,
2017-03-23 03:51:00,30.8,29.0,29.97,WNW,293,6.0,-999.0,93,0.00,,,0.00,,2017-03-23 10:51:00,
2017-03-23 03:57:00,30.8,29.0,29.97,NW,315,4.0,-999.0,93,0.00,,,0.00,,2017-03-23 10:57:00,
2017-03-23 04:02:00,30.8,29.0,29.97,WNW,293,4.0,-999.0,93,0.00,,,0.00,,2017-03-23 11:02:00,
2017-03-23 04:08:00,30.8,29.0,29.97,West,270,5.0,-999.0,93,0.00,,,0.00,,2017-03-23 11:08:00,
2017-03-23 04:13:00,30.7,29.0,29.97,West,270,5.0,-999.0,93,0.00,,,0.00,,2017-03-23 11:13:00,
2017-03-23 04:19:00,30.7,29.0,29.96,NNW,338,7.0,-999.0,95,0.00,,,0.00,,2017-03-23 11:19:00,
2017-03-23 04:24:00,30.7,29.0,29.96,West,270,6.0,-999.0,95,0.00,,,0.00,,2017-03-23 11:24:00,
2017-03-23 04:30:00,30.5,29.0,29.97,NW,315,6.0,-999.0,95,0.00,,,0.00,,2017-03-23 11:30:00,
2017-03-23 04:35:00,30.5,29.0,29.97,WNW,293,5.0,-999.0,95,0.00,,,0.00,,2017-03-23 11:35:00,
2017-03-23 04:41:00,30.3,29.0,29.97,WNW,293,4.0,-999.0,95,0.00,,,0.00,,2017-03-23 11:41:00,
2017-03-23 04:46:00,30.1,29.0,29.96,NW,315,2.0,-999.0,96,0.00,,,0.00,,2017-03-23 11:46:00,
2017-03-23 04:52:00,30.1,29.0,29.97,NNE,23,3.0,-999.0,96,0.00,,,0.00,,2017-03-23 11:52:00,
2017-03-23 04:57:00,30.0,28.0,29.97,ESE,113,3.0,-999.0,96,0.00,,,0.00,,2017-03-23 11:57:00,
2017-03-23 05:03:00,29.5,28.0,29.97,ESE,113,2.0,-999.0,96,0.00,,,0.00,,2017-03-23 12:03:00,
2017-03-23 05:08:00,29.2,28.0,29.97,SW,225,0.0,-999.0,96,0.00,,,0.00,,2017-03-23 12:08:00,
2017-03-23 05:14:00,28.3,27.0,29.97,West,270,0.0,-999.0,96,0.00,,,0.00,,2017-03-23 12:14:00,
2017-03-23 05:19:00,27.9,27.0,29.95,NNW,338,2.0,-999.0,98,0.00,,,0.00,,2017-03-23 12:19:00,
2017-03-23 05:25:00,27.8,27.0,29.97,NW,315,2.0,-999.0,98,0.00,,,0.00,,2017-03-23 12:25:00,
2017-03-23 05:30:00,27.9,27.0,29.97,WNW,293,3.0,-999.0,98,0.00,,,0.00,,2017-03-23 12:30:00,
2017-03-23 05:36:00,28.3,28.0,29.96,NW,315,4.0,-999.0,98,0.00,,,0.00,,2017-03-23 12:36:00,
2017-03-23 05:41:00,28.7,28.0,29.96,WNW,293,3.0,-999.0,98,0.00,,,0.00,,2017-03-23 12:41:00,
2017-03-23 05:47:00,28.7,28.0,29.96,NW,315,4.0,-999.0,98,0.00,,,0.00,,2017-03-23 12:47:00,
2017-03-23 05:53:00,28.8,28.0,29.97,North,0,4.0,-999.0,98,0.00,,,0.00,,2017-03-23 12:53:00,
2017-03-23 05:58:00,28.8,28.0,29.96,WNW,293,5.0,-999.0,98,0.00,,,0.00,,2017-03-23 12:58:00,
2017-03-23 06:04:00,28.8,28.0,29.96,North,0,2.0,-999.0,98,0.00,,,0.00,,2017-03-23 13:04:00,
2017-03-23 06:09:00,28.8,28.0,29.96,SW,225,1.0,-999.0,96,0.00,,,0.00,,2017-03-23 13:09:00,
2017-03-23 06:15:00,28.3,27.0,29.97,SW,225,0.0,-999.0,98,0.00,,,0.00,,2017-03-23 13:15:00,
2017-03-23 06:20:00,27.9,27.0,29.97,NW,315,2.0,-999.0,98,0.00,,,0.00,,2017-03-23 13:20:00,
2017-03-23 06:26:00,27.9,27.0,29.97,WNW,293,2.0,-999.0,98,0.00,,,0.00,,2017-03-23 13:26:00,
2017-03-23 06:31:00,27.9,27.0,29.96,NNE,23,2.0,-999.0,98,0.00,,,0.00,,2017-03-23 13:31:00,
2017-03-23 06:37:00,27.9,27.0,29.97,NW,315,2.0,-999.0,98,0.00,,,0.00,,2017-03-23 13:37:00,
2017-03-23 06:43:00,27.8,27.0,29.96,NW,315,3.0,-999.0,98,0.00,,,0.00,,2017-03-23 13:43:00,
2017-03-23 06:48:00,27.9,27.0,29.96,NW,315,2.0,-999.0,98,0.00,,,0.00,,2017-03-23 13:48:00,
2017-03-23 06:54:00,27.9,27.0,29.96,NNE,23,0.0,-999.0,98,0.00,,,0.00,,2017-03-23 13:54:00,
2017-03-23 06:59:00,27.8,27.0,29.96,South,180,0.0,-999.0,98,0.00,,,0.00,,2017-03-23 13:59:00,
2017-03-23 07:05:00,27.3,27.0,29.96,West,270,0.0,-999.0,98,0.00,,,0.00,,2017-03-23 14:05:00,
2017-03-23 07:10:00,26.6,26.0,29.97,WNW,293,1.0,-999.0,98,0.00,,,0.00,,2017-03-23 14:10:00,
2017-03-23 07:21:00,26.6,26.0,29.97,NE,45,0.0,-999.0,98,0.00,,,0.00,,2017-03-23 14:21:00,
2017-03-23 07:27:00,26.7,26.0,29.97,WNW,293,0.0,-999.0,98,0.00,,,0.00,,2017-03-23 14:27:00,
2017-03-23 07:32:00,27.5,27.0,29.97,NNE,23,1.0,-999.0,98,0.00,,,0.00,,2017-03-23 14:32:00,
2017-03-23 07:38:00,28.3,28.0,29.97,NW,315,1.0,-999.0,98,0.00,,,0.00,,2017-03-23 14:38:00,
2017-03-23 07:44:00,31.5,29.0,29.97,NW,315,2.0,-999.0,91,0.00,,,0.00,,2017-03-23 14:44:00,
2017-03-23 07:49:00,33.2,29.0,29.98,NW,315,1.0,-999.0,86,0.00,,,0.00,,2017-03-23 14:49:00,
2017-03-23 07:55:00,33.5,29.0,29.97,West,270,1.0,-999.0,85,0.00,,,0.00,,2017-03-23 14:55:00,
2017-03-23 08:00:00,33.2,29.0,29.98,West,270,1.0,-999.0,86,0.00,,,0.00,,2017-03-23 15:00:00,
2017-03-23 08:06:00,34.2,30.0,29.98,WNW,293,2.0,-999.0,85,0.00,,,0.00,,2017-03-23 15:06:00,
2017-03-23 08:11:00,34.7,30.0,29.98,West,270,2.0,-999.0,83,0.00,,,0.00,,2017-03-23 15:11:00,
2017-03-23 08:17:00,34.9,29.0,29.98,West,270,3.0,-999.0,81,0.00,,,0.00,,2017-03-23 15:17:00,
2017-03-23 08:22:00,35.1,29.0,29.98,WSW,248,2.0,-999.0,81,0.00,,,0.00,,2017-03-23 15:22:00,
2017-03-23 08:28:00,35.7,30.0,29.98,WSW,248,1.0,-999.0,80,0.00,,,0.00,,2017-03-23 15:28:00,
2017-03-23 08:34:00,37.2,30.0,29.98,West,270,4.0,-999.0,76,0.00,,,0.00,,2017-03-23 15:34:00,
2017-03-23 08:39:00,37.2,30.0,29.98,WSW,248,3.0,-999.0,75,0.00,,,0.00,,2017-03-23 15:39:00,
2017-03-23 08:45:00,37.5,30.0,29.99,WSW,248,3.0,-999.0,75,0.00,,,0.00,,2017-03-23 15:45:00,
2017-03-23 08:50:00,38.7,30.0,29.98,West,270,3.0,-999.0,71,0.00,,,0.00,,2017-03-23 15:50:00,
2017-03-23 08:56:00,39.0,30.0,29.98,NW,315,5.0,-999.0,71,0.00,,,0.00,,2017-03-23 15:56:00,
2017-03-23 09:01:00,39.4,30.0,29.98,NW,315,3.0,-999.0,70,0.00,,,0.00,,2017-03-23 16:01:00,
2017-03-23 09:07:00,38.7,29.0,29.98,NNE,23,2.0,-999.0,70,0.00,,,0.00,,2017-03-23 16:07:00,
2017-03-23 09:12:00,40.7,30.0,29.99,NE,45,2.0,-999.0,66,0.00,,,0.00,,2017-03-23 16:12:00,
2017-03-23 09:18:00,42.1,31.0,29.99,NNE,23,1.0,-999.0,65,0.00,,,0.00,,2017-03-23 16:18:00,
2017-03-23 09:23:00,42.1,30.0,29.98,WNW,293,6.0,-999.0,63,0.00,,,0.00,,2017-03-23 16:23:00,
2017-03-23 09:29:00,41.5,30.0,29.99,SSW,203,1.0,-999.0,65,0.00,,,0.00,,2017-03-23 16:29:00,
2017-03-23 09:35:00,42.1,30.0,29.99,West,270,1.0,-999.0,63,0.00,,,0.00,,2017-03-23 16:35:00,
2017-03-23 09:40:00,43.2,31.0,29.99,West,270,3.0,-999.0,63,0.00,,,0.00,,2017-03-23 16:40:00,
2017-03-23 09:46:00,42.1,30.0,29.99,ENE,68,1.0,-999.0,63,0.00,,,0.00,,2017-03-23 16:46:00,
2017-03-23 09:51:00,43.6,31.0,29.98,SE,135,2.0,-999.0,61,0.00,,,0.00,,2017-03-23 16:51:00,
2017-03-23 09:57:00,43.9,31.0,29.99,North,0,4.0,-999.0,61,0.00,,,0.00,,2017-03-23 16:57:00,
2017-03-23 10:02:00,43.2,31.0,30.01,NE,45,1.0,-999.0,61,0.00,,,0.00,,2017-03-23 17:02:00,
2017-03-23 10:08:00,43.2,31.0,30.01,ESE,113,2.0,-999.0,61,0.00,,,0.00,,2017-03-23 17:08:00,
2017-03-23 10:13:00,43.4,31.0,30.00,SSW,203,1.0,-999.0,61,0.00,,,0.00,,2017-03-23 17:13:00,
2017-03-23 10:19:00,44.2,31.0,30.01,SE,135,2.0,-999.0,61,0.00,,,0.00,,2017-03-23 17:19:00,
2017-03-23 10:24:00,45.2,30.0,30.01,WNW,293,3.0,-999.0,56,0.00,,,0.00,,2017-03-23 17:24:00,
2017-03-23 10:30:00,45.9,31.0,30.01,West,270,2.0,-999.0,55,0.00,,,0.00,,2017-03-23 17:30:00,
2017-03-23 10:35:00,46.5,32.0,30.01,ENE,68,2.0,-999.0,56,0.00,,,0.00,,2017-03-23 17:35:00,
2017-03-23 10:41:00,47.3,33.0,30.02,WSW,248,3.0,-999.0,58,0.00,,,0.00,,2017-03-23 17:41:00,
2017-03-23 10:46:00,46.1,31.0,30.02,SSW,203,3.0,-999.0,55,0.00,,,0.00,,2017-03-23 17:46:00,
2017-03-23 10:52:00,46.1,31.0,30.02,South,180,2.0,-999.0,55,0.00,,,0.00,,2017-03-23 17:52:00,
2017-03-23 10:58:00,47.7,32.0,30.01,NW,315,4.0,-999.0,55,0.00,,,0.00,,2017-03-23 17:58:00,
2017-03-23 11:03:00,48.9,32.0,30.02,WNW,293,2.0,-999.0,54,0.00,,,0.00,,2017-03-23 18:03:00,
2017-03-23 11:09:00,45.9,31.0,30.02,SSE,158,4.0,-999.0,56,0.00,,,0.00,,2017-03-23 18:09:00,
2017-03-23 11:14:00,45.5,31.0,30.02,East,90,3.0,-999.0,58,0.00,,,0.00,,2017-03-23 18:14:00,
2017-03-23 11:20:00,47.6,32.0,30.02,South,180,3.0,-999.0,55,0.00,,,0.00,,2017-03-23 18:20:00,
2017-03-23 11:25:00,46.5,31.0,30.02,ESE,113,3.0,-999.0,55,0.00,,,0.00,,2017-03-23 18:25:00,
2017-03-23 11:30:00,47.7,31.0,30.02,SW,225,2.0,-999.0,54,0.00,,,0.00,,2017-03-23 18:30:00,
2017-03-23 11:35:00,48.2,31.0,30.02,SSW,203,4.0,-999.0,51,0.00,,,0.00,,2017-03-23 18:35:00,
2017-03-23 11:41:00,47.7,31.0,30.02,South,180,2.0,-999.0,51,0.00,,,0.00,,2017-03-23 18:41:00,
2017-03-23 11:46:00,46.7,31.0,30.02,East,90,3.0,-999.0,54,0.00,,,0.00,,2017-03-23 18:46:00,
2017-03-23 11:57:00,50.7,32.0,30.01,SSW,203,6.0,-999.0,50,0.00,,,0.00,,2017-03-23 18:57:00,
2017-03-23 12:03:00,50.5,32.0,30.01,West,270,2.0,-999.0,49,0.00,,,0.00,,2017-03-23 19:03:00,
2017-03-23 12:08:00,51.8,31.0,30.01,NW,315,4.0,-999.0,45,0.00,,,0.00,,2017-03-23 19:08:00,
2017-03-23 12:14:00,52.2,31.0,30.00,West,270,3.0,-999.0,45,0.00,,,0.00,,2017-03-23 19:14:00,
2017-03-23 12:20:00,49.6,31.0,30.01,ESE,113,5.0,-999.0,49,0.00,,,0.00,,2017-03-23 19:20:00,
2017-03-23 12:25:00,49.0,31.0,30.01,SW,225,2.0,-999.0,50,0.00,,,0.00,,2017-03-23 19:25:00,
2017-03-23 12:31:00,51.3,31.0,30.01,West,270,3.0,-999.0,45,0.00,,,0.00,,2017-03-23 19:31:00,
2017-03-23 12:36:00,51.8,32.0,30.01,ESE,113,4.0,-999.0,48,0.00,,,0.00,,2017-03-23 19:36:00,
2017-03-23 12:42:00,51.0,31.0,30.01,SSW,203,5.0,-999.0,45,0.00,,,0.00,,2017-03-23 19:42:00,
2017-03-23 12:47:00,52.6,31.0,30.01,NE,45,6.0,-999.0,44,0.00,,,0.00,,2017-03-23 19:47:00,
2017-03-23 12:53:00,51.4,31.0,30.01,East,90,7.0,-999.0,45,0.00,,,0.00,,2017-03-23 19:53:00,
2017-03-23 12:58:00,52.5,31.0,30.00,NNE,23,2.0,-999.0,44,0.00,,,0.00,,2017-03-23 19:58:00,
2017-03-23 13:04:00,52.6,32.0,30.01,SW,225,2.0,-999.0,45,0.00,,,0.00,,2017-03-23 20:04:00,
2017-03-23 13:10:00,51.4,32.0,30.01,SSE,158,7.0,-999.0,48,0.00,,,0.00,,2017-03-23 20:10:00,
2017-03-23 13:15:00,51.5,30.0,30.01,East,90,5.0,-999.0,45,0.00,,,0.00,,2017-03-23 20:15:00,
2017-03-23 13:26:00,52.8,30.0,30.00,ESE,113,5.0,-999.0,43,0.00,,,0.00,,2017-03-23 20:26:00,
2017-03-23 13:32:00,55.0,30.0,30.00,WNW,293,5.0,-999.0,39,0.00,,,0.00,,2017-03-23 20:32:00,
2017-03-23 13:37:00,53.8,29.0,30.00,West,270,4.0,-999.0,39,0.00,,,0.00,,2017-03-23 20:37:00,
2017-03-23 13:43:00,55.9,26.0,30.00,NNE,23,7.0,-999.0,31,0.00,,,0.00,,2017-03-23 20:43:00,
2017-03-23 13:48:00,55.3,26.0,29.99,SW,225,6.0,-999.0,32,0.00,,,0.00,,2017-03-23 20:48:00,
2017-03-23 13:54:00,54.9,27.0,29.99,WNW,293,6.0,-999.0,34,0.00,,,0.00,,2017-03-23 20:54:00,
2017-03-23 13:59:00,55.3,28.0,29.99,NNW,338,3.0,-999.0,35,0.00,,,0.00,,2017-03-23 20:59:00,
2017-03-23 14:05:00,55.3,28.0,29.99,West,270,9.0,-999.0,35,0.00,,,0.00,,2017-03-23 21:05:00,
2017-03-23 14:11:00,55.5,28.0,29.99,WNW,293,7.0,-999.0,35,0.00,,,0.00,,2017-03-23 21:11:00,
2017-03-23 14:16:00,55.7,27.0,29.99,SW,225,6.0,-999.0,34,0.00,,,0.00,,2017-03-23 21:16:00,
2017-03-23 14:22:00,54.9,25.0,29.99,NW,315,1.0,-999.0,31,0.00,,,0.00,,2017-03-23 21:22:00,
2017-03-23 14:27:00,55.3,28.0,29.99,West,270,8.0,-999.0,35,0.00,,,0.00,,2017-03-23 21:27:00,
2017-03-23 14:33:00,55.5,26.0,29.99,West,270,7.0,-999.0,32,0.00,,,0.00,,2017-03-23 21:33:00,
2017-03-23 14:38:00,56.5,27.0,29.99,WNW,293,6.0,-999.0,32,0.00,,,0.00,,2017-03-23 21:38:00,
2017-03-23 14:44:00,55.1,27.0,29.99,West,270,5.0,-999.0,34,0.00,,,0.00,,2017-03-23 21:44:00,
2017-03-23 14:49:00,55.7,27.0,29.99,SSW,203,2.0,-999.0,32,0.00,,,0.00,,2017-03-23 21:49:00,
2017-03-23 14:55:00,54.9,27.0,29.99,SSW,203,10.0,-999.0,34,0.00,,,0.00,,2017-03-23 21:55:00,
2017-03-23 15:01:00,55.9,27.0,29.99,WSW,248,8.0,-999.0,32,0.00,,,0.00,,2017-03-23 22:01:00,
2017-03-23 15:06:00,54.2,25.0,29.98,SW,225,6.0,-999.0,32,0.00,,,0.00,,2017-03-23 22:06:00,
2017-03-23 15:12:00,55.7,27.0,29.98,SSE,158,5.0,-999.0,32,0.00,,,0.00,,2017-03-23 22:12:00,
2017-03-23 15:17:00,55.5,28.0,29.98,South,180,9.0,-999.0,35,0.00,,,0.00,,2017-03-23 22:17:00,
2017-03-23 15:23:00,55.1,27.0,29.98,SSW,203,7.0,-999.0,35,0.00,,,0.00,,2017-03-23 22:23:00,
2017-03-23 15:28:00,54.4,26.0,29.98,West,270,8.0,-999.0,34,0.00,,,0.00,,2017-03-23 22:28:00,
2017-03-23 15:34:00,53.8,28.0,29.98,South,180,12.0,-999.0,37,0.00,,,0.00,,2017-03-23 22:34:00,
2017-03-23 15:39:00,52.6,27.0,29.98,WNW,293,11.0,-999.0,37,0.00,,,0.00,,2017-03-23 22:39:00,
2017-03-23 15:45:00,51.3,26.0,29.98,SSW,203,12.0,-999.0,37,0.00,,,0.00,,2017-03-23 22:45:00,
2017-03-23 15:51:00,50.9,26.0,29.98,West,270,8.0,-999.0,39,0.00,,,0.00,,2017-03-23 22:51:00,
2017-03-23 15:56:00,51.9,28.0,29.99,South,180,12.0,-999.0,40,0.00,,,0.00,,2017-03-23 22:56:00,
2017-03-23 16:02:00,51.5,27.0,29.98,SSW,203,13.0,-999.0,39,0.00,,,0.00,,2017-03-23 23:02:00,
2017-03-23 16:07:00,52.2,28.0,29.99,South,180,12.0,-999.0,40,0.00,,,0.00,,2017-03-23 23:07:00,
2017-03-23 16:12:00,52.2,28.0,29.99,SSW,203,14.0,-999.0,40,0.00,,,0.00,,2017-03-23 23:12:00,
2017-03-23 16:18:00,51.9,28.0,29.99,South,180,9.0,-999.0,40,0.00,,,0.00,,2017-03-23 23:18:00,
2017-03-23 16:24:00,52.5,27.0,29.99,WSW,248,11.0,-999.0,37,0.00,,,0.00,,2017-03-23 23:24:00,
2017-03-23 16:29:00,51.5,27.0,29.99,South,180,13.0,-999.0,39,0.00,,,0.00,,2017-03-23 23:29:00,
2017-03-23 16:34:00,52.3,27.0,29.99,SSW,203,4.0,-999.0,37,0.00,,,0.00,,2017-03-23 23:34:00,
2017-03-23 16:40:00,51.9,27.0,29.99,West,270,11.0,-999.0,37,0.00,,,0.00,,2017-03-23 23:40:00,
2017-03-23 16:45:00,51.8,24.0,29.99,South,180,10.0,-999.0,34,0.00,,,0.00,,2017-03-23 23:45:00,